Weather History for KBAD - December, 2012

Change the Weather History Date:

Thursday, December 27, 2012

  Actual Average Record
Temperature  
Mean Temperature 36 °F -  
Max Temperature 47 °F 55 °F 73 °F (2008)
Min Temperature 26 °F 35 °F 20 °F (2010)
Degree Days  
Heating Degree Days 28    
Moisture  
Dew Point 33 °F    
Average Humidity 83    
Maximum Humidity 100    
Minimum Humidity 54    
Precipitation  
Precipitation 0.05 in - - ()
Sea Level Pressure  
Sea Level Pressure 30.06 in    
Wind  
Wind Speed 5 mph (ESE)    
Max Wind Speed 10 mph    
Max Gust Speed -    
Visibility 9 miles    
Events Rain    
Averages and records for this station are not official NWS values.
T = Trace of Precipitation, MM = Missing Value Source: NWS Daily Summary

Daily Weather History Graph

Daily Weather History Graph

Search for Another Location

Airport or City:

Trip Planner

Search our weather history database for the weather conditions in past years. The results will help you decide how hot, cold, wet, or windy it might be!

Date:

Astronomy

Dec. 27, 2012 Rise Set
Actual Time 7:15 AM CST 5:17 PM CST
Civil Twilight 6:47 AM CST 5:44 PM CST
Nautical Twilight 6:17 AM CST 6:14 PM CST
Astronomical Twilight 5:47 AM CST 6:44 PM CST
Moon 4:58 PM CST (12/27) 6:28 AM CST (12/27)
Length of Visible Light 10h 56m
Length of Day
10h 01m
Full, 100% of the Moon is Illuminated
Dec 27
Full
Dec 28
Full
Jan 4
Last Quarter
Jan 11
New
Jan 18
First Quarter

Hourly Weather History & Observations

Time (CST) Temp. Windchill Dew Point Humidity Pressure Visibility Wind Dir Wind Speed Gust Speed Precip Events Conditions
12:37 AM 30.2 °F 23.4 °F 26.6 °F 86% 30.17 in 10.0 mi ESE 6.9 mph - N/A   Overcast
12:55 AM 29.7 °F 23.7 °F 27.3 °F 91% 30.18 in 10.0 mi SE 5.8 mph - N/A   Overcast
1:55 AM 30.6 °F 25.8 °F 28.4 °F 92% 30.17 in 10.0 mi East 4.6 mph - N/A   Overcast
2:16 AM 30.2 °F 24.3 °F 28.4 °F 93% 30.16 in 10.0 mi East 5.8 mph - N/A   Overcast
2:52 AM 30.2 °F 26.7 °F 26.6 °F 86% 30.17 in 10.0 mi ENE 3.5 mph - N/A   Scattered Clouds
2:55 AM 30.2 °F 26.7 °F 27.3 °F 89% 30.17 in 10.0 mi ENE 3.5 mph - N/A   Scattered Clouds
3:55 AM 29.3 °F 24.3 °F 26.8 °F 90% 30.15 in 10.0 mi ENE 4.6 mph - N/A   Clear
4:55 AM 28.6 °F - 26.4 °F 92% 30.14 in 10.0 mi Calm Calm - N/A   Clear
5:55 AM 28.0 °F - 27.0 °F 96% 30.16 in 10.0 mi Calm Calm - N/A   Clear
6:15 AM 26.6 °F - 26.6 °F 100% 30.16 in 9.0 mi Calm Calm - N/A   Clear
6:39 AM 26.6 °F - 26.6 °F 100% 30.16 in 8.0 mi Calm Calm - N/A   Clear
6:55 AM 27.1 °F - 26.4 °F 97% 30.17 in 9.0 mi Calm Calm - N/A   Clear
7:02 AM 26.6 °F - 26.6 °F 100% 30.17 in 9.0 mi Calm Calm - N/A   Clear
7:04 AM 26.6 °F - 26.6 °F 100% 30.16 in 9.0 mi Calm Calm - N/A   Clear
7:55 AM 26.8 °F - 25.7 °F 96% 30.17 in 10.0 mi Calm Calm - N/A   Clear
8:16 AM 28.4 °F - 26.6 °F 93% 30.17 in 8.0 mi Calm Calm - N/A   Light Freezing Rain
8:25 AM 28.4 °F - 28.4 °F 100% 30.18 in 10.0 mi Calm Calm - N/A   Clear
8:55 AM 30.0 °F 26.5 °F 27.9 °F 92% 30.19 in 10.0 mi SE 3.5 mph - 0.00 in   Clear
9:55 AM 34.5 °F 27.3 °F 30.0 °F 84% 30.19 in 10.0 mi SE 9.2 mph - N/A   Partly Cloudy
10:55 AM 37.8 °F 32.5 °F 30.6 °F 75% 30.18 in 10.0 mi SSE 6.9 mph - N/A   Scattered Clouds
11:55 AM 41.0 °F 36.4 °F 31.1 °F 68% 30.14 in 10.0 mi South 6.9 mph - N/A   Clear
12:55 PM 44.2 °F 41.8 °F 30.7 °F 59% 30.08 in 10.0 mi Variable 4.6 mph - N/A   Clear
1:55 PM 45.3 °F - 30.4 °F 56% 30.06 in 10.0 mi Calm Calm - N/A   Clear
2:55 PM 47.1 °F - 31.1 °F 54% 30.03 in 10.0 mi ESE 8.1 mph - N/A   Clear
3:55 PM 46.6 °F - 31.1 °F 55% 30.02 in 10.0 mi East 8.1 mph - N/A   Overcast
4:55 PM 46.4 °F 42.9 °F 31.3 °F 56% 30.01 in 10.0 mi ESE 6.9 mph - N/A   Overcast
5:55 PM 46.0 °F 43.1 °F 31.8 °F 58% 30.01 in 10.0 mi ESE 5.8 mph - N/A   Overcast
6:55 PM 45.7 °F 41.5 °F 32.2 °F 59% 30.01 in 10.0 mi ESE 8.1 mph - N/A   Overcast
7:55 PM 45.1 °F 39.9 °F 33.1 °F 63% 30.00 in 10.0 mi SE 10.4 mph - N/A   Overcast
8:22 PM 44.6 °F 39.7 °F 33.8 °F 66% 30.00 in 10.0 mi ESE 9.2 mph - N/A   Overcast
8:35 PM 44.6 °F 40.7 °F 35.6 °F 71% 30.00 in 10.0 mi ESE 6.9 mph - N/A   Light Drizzle
8:47 PM 42.8 °F 38.6 °F 35.6 °F 76% 30.00 in 10.0 mi ESE 6.9 mph - N/A   Overcast
8:55 PM 43.9 °F 40.5 °F 35.1 °F 71% 30.00 in 10.0 mi ESE 5.8 mph - 0.00 in   Overcast
9:20 PM 44.6 °F 40.2 °F 35.6 °F 71% 29.99 in 10.0 mi ESE 8.1 mph - N/A   Light Drizzle
9:48 PM 42.8 °F 39.3 °F 37.4 °F 81% 29.98 in 6.0 mi ESE 5.8 mph - N/A   Light Drizzle
9:50 PM 42.8 °F 38.0 °F 37.4 °F 81% 29.98 in 6.0 mi East 8.1 mph - N/A   Light Drizzle
9:52 PM 42.8 °F 38.0 °F 37.4 °F 81% 29.99 in 6.0 mi ESE 8.1 mph - N/A   Light Drizzle
9:55 PM 42.4 °F 38.8 °F 37.8 °F 83% 29.99 in 6.0 mi East 5.8 mph - 0.00 in   Light Drizzle
9:59 PM 42.8 °F 41.1 °F 37.4 °F 81% 29.99 in 8.0 mi ESE 3.5 mph - N/A   Light Drizzle
10:01 PM 42.8 °F 40.1 °F 37.4 °F 81% 29.99 in 9.0 mi ESE 4.6 mph - N/A   Overcast
10:42 PM 42.8 °F 38.6 °F 37.4 °F 81% 29.98 in 10.0 mi ESE 6.9 mph - N/A Rain Light Rain
10:50 PM 42.8 °F 38.0 °F 37.4 °F 81% 29.97 in 6.0 mi ESE 8.1 mph - N/A   Overcast
10:52 PM 42.8 °F 38.0 °F 37.4 °F 81% 29.97 in 5.0 mi ESE 8.1 mph - N/A   Overcast
10:55 PM 41.9 °F 38.2 °F 38.1 °F 86% 29.96 in 5.0 mi East 5.8 mph - 0.01 in   Overcast
10:56 PM 41.0 °F 37.1 °F 37.4 °F 87% 29.96 in 6.0 mi East 5.8 mph - N/A   Light Drizzle
11:00 PM 41.0 °F 36.4 °F 39.2 °F 93% 29.96 in 7.0 mi East 6.9 mph - N/A   Light Drizzle
11:10 PM 41.0 °F 38.0 °F 39.2 °F 93% 29.96 in 7.0 mi East 4.6 mph - N/A Rain Light Rain
11:27 PM 41.0 °F - 39.2 °F 93% 29.96 in 6.0 mi Calm Calm - N/A   Mostly Cloudy
11:29 PM 41.0 °F 39.0 °F 39.2 °F 93% 29.96 in 6.0 mi East 3.5 mph - N/A   Mostly Cloudy
11:32 PM 41.0 °F 39.0 °F 39.2 °F 93% 29.96 in 6.0 mi East 3.5 mph - N/A   Scattered Clouds
11:51 PM 41.0 °F 39.0 °F 39.2 °F 93% 29.96 in 7.0 mi East 3.5 mph - N/A Rain Light Rain
11:55 PM 41.2 °F 38.2 °F 40.1 °F 96% 29.95 in 6.0 mi East 4.6 mph - 0.04 in Rain Light Rain